TimeCEST,TemperatureF,Dew PointF,Humidity,Sea Level PressureIn,VisibilityMPH,Wind Direction,Wind SpeedMPH,Gust SpeedMPH,PrecipitationIn,Events,Conditions,WindDirDegrees,DateUTC
2:00 AM,60,48,55,30.03,19,SSW,6.9,,,,,200,2013-05-24 00:00:00
6:00 AM,51.8,48.2,88,30.01,6.2,Calm,Calm,-,N/A,,Partly Cloudy,0,2013-05-24 04:00:00
6:30 AM,50.0,48.2,94,30.01,6.2,Calm,Calm,-,N/A,,Partly Cloudy,0,2013-05-24 04:30:00
7:00 AM,50.0,48.2,94,30.01,6.2,Calm,Calm,-,N/A,,Partly Cloudy,0,2013-05-24 05:00:00
7:30 AM,50.0,48.2,94,30.01,-9999.0,Variable,2.3,-,N/A,,Clear,0,2013-05-24 05:30:00
8:00 AM,52,46,75,30.04,6,NNW,2.3,,,,,330,2013-05-24 06:00:00
8:00 AM,51.8,48.2,88,30.04,-9999.0,Variable,2.3,-,N/A,,Clear,0,2013-05-24 06:00:00
8:30 AM,53.6,50.0,88,30.04,-9999.0,Calm,Calm,-,N/A,,Clear,0,2013-05-24 06:30:00
9:00 AM,59.0,51.8,77,30.04,-9999.0,Calm,Calm,-,N/A,,Clear,0,2013-05-24 07:00:00
9:30 AM,60.8,51.8,72,30.04,-9999.0,Calm,Calm,-,N/A,,Clear,0,2013-05-24 07:30:00
10:00 AM,62.6,51.8,68,30.04,6.2,Calm,Calm,-,N/A,,Partly Cloudy,0,2013-05-24 08:00:00
10:30 AM,66.2,50.0,56,30.04,6.2,Calm,Calm,-,N/A,,Partly Cloudy,0,2013-05-24 08:30:00
11:00 AM,68.0,50.0,52,30.04,6.2,Calm,Calm,-,N/A,,Partly Cloudy,0,2013-05-24 09:00:00
11:30 AM,69.8,44.6,40,30.04,6.2,Variable,1.2,-,N/A,,Partly Cloudy,0,2013-05-24 09:30:00
12:00 PM,71.6,46.4,41,30.04,6.2,Variable,1.2,-,N/A,,Partly Cloudy,0,2013-05-24 10:00:00
12:30 PM,73.4,46.4,38,30.04,6.2,Variable,2.3,-,N/A,,Partly Cloudy,0,2013-05-24 10:30:00
1:00 PM,75.2,48.2,38,30.04,6.2,Variable,1.2,-,N/A,,Partly Cloudy,0,2013-05-24 11:00:00
1:30 PM,77.0,48.2,36,30.01,6.2,NW,3.5,-,N/A,,Partly Cloudy,310,2013-05-24 11:30:00
2:00 PM,78,46,22,29.92,19,NW,2.3,,,,Scattered Clouds,320,2013-05-24 12:00:00
2:00 PM,77.0,46.4,34,30.01,6.2,Variable,3.5,-,N/A,,Partly Cloudy,0,2013-05-24 12:00:00
2:30 PM,78.8,46.4,32,30.01,6.2,West,6.9,-,N/A,,Partly Cloudy,280,2013-05-24 12:30:00
3:00 PM,78.8,46.4,32,30.01,6.2,West,10.4,-,N/A,,Partly Cloudy,280,2013-05-24 13:00:00
3:30 PM,77.0,48.2,36,29.98,6.2,WNW,8.1,-,N/A,,Partly Cloudy,300,2013-05-24 13:30:00
4:00 PM,80.6,48.2,32,29.98,6.2,West,11.5,-,N/A,,Partly Cloudy,280,2013-05-24 14:00:00
4:30 PM,78.8,48.2,34,29.98,6.2,WNW,13.8,-,N/A,,Partly Cloudy,290,2013-05-24 14:30:00
5:00 PM,78.8,48.2,34,29.98,6.2,NW,13.8,-,N/A,,Partly Cloudy,310,2013-05-24 15:00:00
5:30 PM,78.8,50.0,36,29.98,6.2,WNW,12.7,-,N/A,,Partly Cloudy,290,2013-05-24 15:30:00
6:00 PM,78.8,50.0,36,29.98,6.2,WNW,12.7,-,N/A,,Partly Cloudy,300,2013-05-24 16:00:00
6:30 PM,78.8,50.0,36,29.98,6.2,NW,12.7,-,N/A,,Partly Cloudy,310,2013-05-24 16:30:00
7:00 PM,77.0,50.0,39,29.98,6.2,WNW,9.2,-,N/A,,Partly Cloudy,300,2013-05-24 17:00:00
7:30 PM,78.8,51.8,39,29.98,6.2,West,13.8,-,N/A,,Partly Cloudy,280,2013-05-24 17:30:00
8:00 PM,77,50,28,29.90,17,West,12.7,,,,,280,2013-05-24 18:00:00
8:00 PM,77.0,51.8,41,29.98,6.2,West,11.5,-,N/A,,Partly Cloudy,280,2013-05-24 18:00:00
8:30 PM,75.2,53.6,47,30.01,6.2,WNW,9.2,-,N/A,,Partly Cloudy,300,2013-05-24 18:30:00
9:00 PM,71.6,53.6,53,30.01,6.2,WNW,5.8,-,N/A,,Partly Cloudy,300,2013-05-24 19:00:00
9:27 PM,69.8,53.6,56,30.01,6.2,West,5.8,-,N/A,,Partly Cloudy,270,2013-05-24 19:27:00
9:30 PM,69.8,53.6,56,30.01,6.2,West,6.9,-,N/A,,Partly Cloudy,270,2013-05-24 19:30:00
10:00 PM,68.0,53.6,60,30.04,6.2,West,4.6,-,N/A,,Partly Cloudy,280,2013-05-24 20:00:00
10:30 PM,66.2,53.6,64,30.04,-9999.0,WNW,3.5,-,N/A,,Clear,290,2013-05-24 20:30:00
11:00 PM,66.2,53.6,64,30.04,-9999.0,Variable,1.2,-,N/A,,Clear,0,2013-05-24 21:00:00
11:30 PM,66.2,53.6,64,30.06,-9999.0,Variable,1.2,-,N/A,,Clear,0,2013-05-24 21:30:00